Mount Washington, New Hampshire, United States (03589)
Lat: 44.69N, Lon: 71.39W
Wx Zone: NHZ002
Local Info
Past Weather Observations for Today

NOTE: This archive is for the closest National Weather Service station to Mount Washington. Information may differ from the station used for current weather conditions.

Click here for Long-term Archive

Time Weather Temperature Dewpoint Humidity Pressure Winds Precip Visibility
13:52
Overcast
Light Snow
23°F / -5°C 10°F / -12°C 58% 29.86 in
(1011 mb)
NW 8.1 mph
(NW 13 kph)
0.00 in
(0.00 mm)
2 1/2SM
13:46
Overcast
Light Snow
23°F / -5°C 10°F / -12°C 58% 29.86 in
(1011 mb)
W 8.1 mph
(W 13 kph)
0.00 in
(0.00 mm)
2 1/2SM
12:52
Overcast
Light Snow
25°F / -4°C 12°F / -11°C 59% 29.83 in
(1010 mb)
W 8.1 mph
(W 13 kph)
0.00 in
(0.00 mm)
6SM
12:48
Overcast
Hazy
25°F / -4°C 12°F / -11°C 59% 29.83 in
(1010 mb)
WNW 15 mph
(WNW 24 kph)
0.00 in
(0.00 mm)
5SM
12:39
Overcast
Light Snow
25°F / -4°C 12°F / -11°C 59% 29.83 in
(1010 mb)
NW 12.7 mph
(NW 20 kph)
0.00 in
(0.00 mm)
3SM
12:29
Overcast
Light Snow
23°F / -5°C 10°F / -12°C 58% 29.83 in
(1010 mb)
WNW 13.8 mph
(WNW 22 kph)
0.00 in
(0.00 mm)
1 3/4SM
11:52
Overcast
25°F / -4°C 12°F / -11°C 59% 29.83 in
(1010 mb)
NW 11.5 mph
(NW 19 kph)
0.00 in
(0.00 mm)
8SM
10:52
Overcast
Light Snow
25°F / -4°C 14°F / -10°C 63% 29.83 in
(1010 mb)
NW 9.2 mph
(NW 15 kph)
0.00 in
(0.00 mm)
3SM
10:50
Overcast
Light Snow
25°F / -4°C 14°F / -10°C 63% 29.83 in
(1010 mb)
Variable 6.9 mph
(Variable 11 kph)
0.00 in
(0.00 mm)
2 1/2SM
10:29
Overcast
Light Snow
25°F / -4°C 14°F / -10°C 63% 29.83 in
(1010 mb)
NW 8.1 mph
(NW 13 kph)
0.00 in
(0.00 mm)
2SM
10:16
Overcast
Light Snow
25°F / -4°C 14°F / -10°C 63% 29.83 in
(1010 mb)
Variable 6.9 mph
(Variable 11 kph)
0.00 in
(0.00 mm)
2 1/2SM
09:52
Overcast
Light Snow
23°F / -5°C 14°F / -10°C 68% 29.83 in
(1010 mb)
W 10.4 mph
(W 17 kph)
0.00 in
(0.00 mm)
4SM
09:49
Overcast
Light Snow
23°F / -5°C 16°F / -9°C 74% 29.83 in
(1010 mb)
WNW 8.1 mph
(WNW 13 kph)
0.00 in
(0.00 mm)
3SM
09:36
Overcast
Light Snow
21°F / -6°C 14°F / -10°C 74% 29.83 in
(1010 mb)
Calm 0.00 in
(0.00 mm)
1 3/4SM
08:57
Overcast
Light Snow
21°F / -6°C 16°F / -9°C 80% 29.83 in
(1010 mb)
Variable 4.6 mph
(Variable 7 kph)
0.00 in
(0.00 mm)
3SM
08:52
Overcast
Light Snow
21°F / -6°C 16°F / -9°C 80% 29.83 in
(1010 mb)
Variable 6.9 mph
(Variable 11 kph)
0.00 in
(0.00 mm)
1 3/4SM
08:39
Overcast
Light Snow
21°F / -6°C 16°F / -9°C 80% 29.83 in
(1010 mb)
Variable 5.8 mph
(Variable 9 kph)
0.00 in
(0.00 mm)
1SM
08:29
Overcast
Light Snow
21°F / -6°C 16°F / -9°C 80% 29.83 in
(1010 mb)
NW 9.2 mph
(NW 15 kph)
0.00 in
(0.00 mm)
1 3/4SM
08:21
Overcast
Light Snow
21°F / -6°C 16°F / -9°C 80% 29.83 in
(1010 mb)
Variable 5.8 mph
(Variable 9 kph)
0.00 in
(0.00 mm)
4SM
08:11
Overcast
Light Snow
21°F / -6°C 16°F / -9°C 80% 29.83 in
(1010 mb)
WNW 8.1 mph
(WNW 13 kph)
0.00 in
(0.00 mm)
2SM
08:02
Overcast
Light Snow
21°F / -6°C 16°F / -9°C 80% 29.83 in
(1010 mb)
NW 6.9 mph
(NW 11 kph)
0.00 in
(0.00 mm)
1 1/4SM
07:52
Overcast
Light Snow
21°F / -6°C 16°F / -9°C 80% 29.83 in
(1010 mb)
Variable 6.9 mph
(Variable 11 kph)
0.00 in
(0.00 mm)
1 1/2SM
07:47
Overcast
Light Snow
21°F / -6°C 16°F / -9°C 80% 29.83 in
(1010 mb)
Variable 4.6 mph
(Variable 7 kph)
0.00 in
(0.00 mm)
1 1/2SM
07:33
Overcast
Light Snow
21°F / -6°C 16°F / -9°C 80% 29.83 in
(1010 mb)
WNW 6.9 mph
(WNW 11 kph)
0.00 in
(0.00 mm)
2SM
07:20
Overcast
Light Snow
19°F / -7°C 16°F / -9°C 86% 29.83 in
(1010 mb)
Variable 3.5 mph
(Variable 6 kph)
0.00 in
(0.00 mm)
1 3/4SM
06:52
Overcast
Fog And Mist
16°F / -9°C 10°F / -12°C 79% 29.83 in
(1010 mb)
Calm 0.00 in
(0.00 mm)
6SM
06:44
Overcast
Fog And Mist
12°F / -11°C 10°F / -12°C 92% 29.83 in
(1010 mb)
Calm 0.00 in
(0.00 mm)
4SM
06:32
Overcast
Light Snow
14°F / -10°C 10°F / -12°C 85% 29.83 in
(1010 mb)
Calm 0.00 in
(0.00 mm)
2SM
06:12
Overcast
Light Snow
14°F / -10°C 10°F / -12°C 85% 29.83 in
(1010 mb)
Calm 0.00 in
(0.00 mm)
4SM
05:52
Overcast
Light Snow
16°F / -9°C 12°F / -11°C 86% 29.83 in
(1010 mb)
Calm 0.00 in
(0.00 mm)
2SM
05:40
Overcast
Light Snow
16°F / -9°C 12°F / -11°C 86% 29.83 in
(1010 mb)
Calm 0.00 in
(0.00 mm)
2SM
05:30
Overcast
Light Snow
16°F / -9°C 10°F / -12°C 79% 29.83 in
(1010 mb)
Calm 0.00 in
(0.00 mm)
3SM
05:17
Overcast
Light Snow
16°F / -9°C 12°F / -11°C 86% 29.86 in
(1011 mb)
Calm 0.00 in
(0.00 mm)
2SM
05:08
Overcast
Light Snow
16°F / -9°C 12°F / -11°C 86% 29.86 in
(1011 mb)
Calm 0.00 in
(0.00 mm)
3SM
05:00
Overcast
Light Snow
16°F / -9°C 10°F / -12°C 79% 29.86 in
(1011 mb)
Calm 0.00 in
(0.00 mm)
2 1/2SM
04:52
Overcast
Light Snow
16°F / -9°C 10°F / -12°C 79% 29.86 in
(1011 mb)
Calm 0.00 in
(0.00 mm)
2SM
04:41
Overcast
Light Snow
16°F / -9°C 10°F / -12°C 79% 29.86 in
(1011 mb)
Calm 0.00 in
(0.00 mm)
1 3/4SM
04:28
Overcast
Light Snow
14°F / -10°C 10°F / -12°C 85% 29.86 in
(1011 mb)
Calm 0.00 in
(0.00 mm)
2 1/2SM
04:06
Overcast
Light Snow
16°F / -9°C 10°F / -12°C 79% 29.86 in
(1011 mb)
Calm 0.00 in
(0.00 mm)
2 1/2SM
03:59
Overcast
Light Snow
16°F / -9°C 10°F / -12°C 79% 29.89 in
(1012 mb)
Calm 0.00 in
(0.00 mm)
1 3/4SM
03:52
Overcast
Light Snow
16°F / -9°C 10°F / -12°C 79% 29.89 in
(1012 mb)
Calm 0.00 in
(0.00 mm)
2SM
03:33
Overcast
Light Snow
12°F / -11°C 9°F / -13°C 85% 29.89 in
(1012 mb)
Calm 0.00 in
(0.00 mm)
3SM
03:06
Overcast
Light Snow
12°F / -11°C 9°F / -13°C 85% 29.89 in
(1012 mb)
Calm 0.00 in
(0.00 mm)
2SM
02:52
Overcast
Light Snow
12°F / -11°C 9°F / -13°C 85% 29.89 in
(1012 mb)
Calm 0.00 in
(0.00 mm)
4SM
02:25
Overcast
Light Snow
16°F / -9°C 10°F / -12°C 79% 29.92 in
(1013 mb)
Calm 0.00 in
(0.00 mm)
3SM
02:11
Overcast
Light Snow
12°F / -11°C 9°F / -13°C 85% 29.92 in
(1013 mb)
Calm 0.00 in
(0.00 mm)
2 1/2SM
01:52
Overcast
Light Snow
16°F / -9°C 10°F / -12°C 79% 29.95 in
(1014 mb)
Calm 0.00 in
(0.00 mm)
3SM
00:59
Overcast
Light Snow
16°F / -9°C 12°F / -11°C 86% 29.95 in
(1014 mb)
Calm 0.00 in
(0.00 mm)
4SM
00:52
Overcast
Light Snow
18°F / -8°C 14°F / -10°C 86% 29.95 in
(1014 mb)
Calm 0.01 in
(0.25 mm)
2 1/2SM
00:39
Overcast
Light Snow
19°F / -7°C 16°F / -9°C 86% 29.98 in
(1015 mb)
Calm 0.01 in
(0.25 mm)
1 3/4SM
00:37
Overcast
Light Snow
19°F / -7°C 16°F / -9°C 86% 29.98 in
(1015 mb)
Calm 0.01 in
(0.25 mm)
2SM
Time Weather Temperature Dewpoint Humidity Pressure Winds Precip Visibility


Weather for websites

WeatherForYou.com, LLC is not responsible for any damages or problems caused by this service. Current weather conditions are obtained from the closest station including government and personal stations which may have varying degrees of accuracy. Weather forecasts are derived from the NOAA NDFD. Like all things, this site belongs to Jesus Christ... He just trusts me to maintain it. If you have any questions or comments email webmaster@weatherforyou.com

Copyright © 2015, WeatherForYou.com LLC. All rights reserved.